Weather in Rudino

Russia / Kostroma Oblast     57°27′00″N   40°54′05″E
temp.,
°C
wind,
m/s
gust,
m/s
humid.,
%
clouds,
%
prec.,
mm/h
press.,
hPa
HPBL,
m
17 may, tue
tue1700:00+7nw379998 2.6 1000360
03:00+6n379898 2.7 999286
06:00+7n3898100 0.6 999477
09:00+10nne5889100 0.7 1000670
12:00+12nne688299 1.4 10011002
15:00+10nne6108796 3.4 1002768
18:00+9nne61088100 0.6 1004733
21:00+7nne6128992 0.8 1005695
18 may, wed
wed1800:00+7nne5128599 0.0 1006601
03:00+3n4109379 0.0 1008356
06:00+4n41185100 0.0 1009447
09:00+8n585822 0.0 10101376
12:00+11nnw675596 0.1 10101842
15:00+11nnw5758100 0.1 10101779
18:00+6nnw5990100 0.7 1012883
21:00+4nw369476 0.8 1013118
19 may, thu
thu1900:00+2w3694100 0.0 1012120
03:00+3wnw3894100 0.0 1011288
06:00+4wnw1498100 2.2 1010398
09:00+6nnw687745 5.5 10121160
12:00+7nnw686786 0.1 10141358
15:00+8nnw686499 0.6 10141322
18:00+7nw697399 0.7 1015760
21:00+3nw388269 0.7 1015164
20 may, fri
fri2000:00+1nw399383 0.0 1016235
03:000nw410955 0.0 1017295
06:00+2nnw48855 0.0 1018346
09:00+7nnw46625 0.0 10191075
12:00+10nnw344761 0.0 10181911
15:00+11nw3342100 0.0 10172176
18:00+11wnw235374 0.0 10161216
21:00+5w2269100 0.0 101521
21 may, sat
sat2100:00+3wnw22719 0.0 101410
03:00+2nne118023 0.0 101412
06:00+5ene12725 0.0 101399
09:00+10ne23575 0.0 1012764
12:00+11nne3349100 0.0 10111779
15:00+12ne334795 0.1 10101923
18:00+12nne23486 0.0 10101985
21:00+6ne336637 0.0 101027